Zurück zum Katalog

STARLINK-37580

AktivKommunikationVLEO
NORAD 100019·PAYLOAD·🇺🇸 United States

Gestartet Jul 14, 2026 von Vandenberg Space Force Base

Loading…

Nächste Überflüge (nächste 24 Stunden)

TLE

AktuellSource: Space-Track

Epoche: Sep 14, 2026, 21:54 UTC

1 A0019U 26160U   26257.91319184 -.00996852  00000-0 -73908-2 0  9993
2 A0019  70.0021 210.6683 0007501 300.1094  59.9360 15.75300052 11112

Verfolge STARLINK-37580 in Echtzeit mit AllMySat

Download on the App Store